Home   Weather   Yangon   Past weeks

Flag for Myanmar Past Weather in Yangon, Myanmar — Yesterday and Last 2 Weeks

Now
77 °F

Clear.


Feels Like: 79 °F
Forecast: 69 / 91 °F
Wind: 5 mph from North

Location: Rangoon Airport

Current Time: Jan 19, 2017 at 1:08:35 am

Latest Report: Jan 19, 2017 at 12:30 am


Visibility: 4 mi

Pressure: 29.98 "Hg

Humidity: 79%

Dew Point: 70 °F

Location of YangonLocation

Past Weather in Yangon — Graph

°F

Yangon Temperature Yesterday

Maximum temperature yesterday: 90 °F (at 4:00 pm)
Minimum temperature yesterday: 70 °F (at 5:00 am)
Average temperature yesterday: 80 °F

High & Low Weather Summary for the Past Weeks

 TemperatureHumidityPressure
High91 °F (Jan 6, 4:30 pm)94% (Jan 4, 1:00 am)30.01 "Hg (Jan 4, 1:00 am)
Low63 °F (Jan 15, 6:00 am)33% (Jan 15, 2:00 pm)29.71 "Hg (Jan 7, 2:30 pm)
Average79 °F69%29.85 "Hg
* Reported Jan 3 10:30 pm — Jan 18 11:00 pm, Yangon, Weather by CustomWeather, © 2017

Note: Actual official high and low records may vary slightly from our data, if they occured in-between our weather recording intervals... More about our weather records

Advertising

Yangon Weather History for the Previous 24 Hours

Scroll right to see more
 ConditionsComfort  
Time TempWeatherWind HumidityBarometerVisibility
11:00 pm
Wed, Jan 18
79 °FClear.3 mph70%30.01 "Hg4 mi
10:00 pm79 °FClear.2 mph70%30.01 "Hg4 mi
9:30 pm79 °FPassing clouds.3 mph70%29.98 "Hg4 mi
9:00 pm79 °FPartly cloudy.3 mph70%29.98 "Hg4 mi
8:30 pm79 °FPartly cloudy.3 mph70%29.98 "Hg4 mi
8:00 pm79 °FPartly cloudy.3 mph70%29.98 "Hg4 mi
7:30 pm82 °FPartly cloudy.2 mph62%29.95 "Hg4 mi
7:00 pm82 °FPartly cloudy.2 mph62%29.95 "Hg4 mi
6:30 pm86 °FPartly cloudy.2 mph59%29.92 "Hg4 mi
6:00 pm86 °FBroken clouds.2 mph59%29.92 "Hg5 mi
5:30 pm90 °FScattered clouds.5 mph46%29.89 "Hg5 mi
5:00 pm90 °FScattered clouds.5 mph46%29.92 "Hg5 mi
4:30 pm90 °FScattered clouds.5 mph46%29.89 "Hg5 mi
4:00 pm90 °FScattered clouds.5 mph46%29.89 "Hg5 mi
3:30 pm88 °FBroken clouds.3 mph49%29.89 "Hg5 mi
3:00 pm88 °FBroken clouds.3 mph49%29.89 "Hg5 mi
2:30 pm88 °FBroken clouds.3 mph49%29.92 "Hg5 mi
2:00 pm88 °FBroken clouds.7 mph49%29.92 "Hg5 mi
1:30 pm88 °FBroken clouds.7 mph59%29.92 "Hg5 mi
1:00 pm88 °FBroken clouds.3 mph59%29.95 "Hg5 mi
12:30 pm84 °FBroken clouds.2 mph51%29.98 "Hg5 mi
12:00 pm84 °FBroken clouds.6 mph51%29.98 "Hg5 mi
11:30 am82 °FScattered clouds.2 mph55%30.01 "Hg5 mi
11:00 am82 °FScattered clouds.7 mph55%30.01 "Hg5 mi
10:30 am81 °FScattered clouds.9 mph62%30.01 "Hg5 mi
10:00 am81 °FScattered clouds.12 mph62%30.01 "Hg5 mi
9:30 am77 °FScattered clouds.5 mph65%30.01 "Hg4 mi
9:00 am73 °FScattered clouds.6 mph83%30.01 "Hg4 mi
8:30 am73 °FScattered clouds.6 mph83%30.01 "Hg4 mi
7:30 am70 °FScattered clouds.2 mph94%29.98 "Hg4 mi
7:00 am70 °FPassing clouds.2 mph94%29.95 "Hg4 mi
6:30 am70 °FPassing clouds.2 mph94%29.95 "Hg4 mi
6:00 am70 °FPassing clouds.2 mph94%29.92 "Hg4 mi
5:30 am70 °FPassing clouds.2 mph94%29.92 "Hg4 mi
5:00 am70 °FClear.2 mph94%29.92 "Hg4 mi
1:00 am72 °FClear.2 mph88%29.95 "Hg4 mi
Weather by CustomWeather, © 2017

See weather overviewHow to use our weather pages